NM5PB Weather Reports


time (UTC)temp
C
wind
direction
speed
KPH
gust
KPH
rain 1hr
cm
rain 24hr
cm
rain mn
cm
humidity
%
barometer
mb
20260504080104 6 67 0.0 0.0 0.00 0.00 0.00 84 100.4
20260504070104 6 24 0.0 0.0 0.00 0.00 0.00 84 100.5
20260504060104 7 312 0.0 0.0 0.00 0.00 0.00 80 100.5
20260504050104 8 29 0.0 0.0 0.00 0.00 0.00 76 100.6
20260504045104 8 248 0.0 0.0 0.00 0.00 0.00 74 100.6
20260504044104 9 272 0.0 0.0 0.00 0.00 0.00 76 100.6
20260504043104 9 325 0.0 0.0 0.00 0.00 0.00 75 100.6
20260504042104 10 51 0.0 0.0 0.00 0.00 0.00 73 100.6
20260504041104 10 209 0.0 0.0 0.00 0.00 0.00 73 100.6
20260504040104 10 8 0.0 0.0 0.00 0.00 0.00 71 100.6
20260504035104 11 21 0.0 0.0 0.00 0.00 0.00 68 100.6
20260504034104 11 50 0.0 0.0 0.00 0.00 0.00 70 100.7
20260504033104 11 5 0.0 0.0 0.00 0.00 0.00 67 100.7
20260504032104 12 144 0.0 1.6 0.00 0.00 0.00 66 100.7
20260504031104 12 82 0.0 0.0 0.00 0.00 0.00 65 100.7
20260504030104 12 92 0.0 0.0 0.00 0.00 0.00 65 100.7
20260504025104 13 98 0.0 0.0 0.00 0.00 0.00 65 100.7
20260504024104 13 109 0.0 0.0 0.00 0.00 0.00 60 100.6
20260504023104 14 123 0.0 0.0 0.00 0.00 0.00 55 100.6
20260504022104 15 85 0.0 0.0 0.00 0.00 0.00 52 100.6
20260504021104 15 79 0.0 0.0 0.00 0.00 0.00 50 100.6
20260504020104 16 81 0.0 0.0 0.00 0.00 0.00 48 100.6
20260504015104 17 113 0.0 0.0 0.00 0.00 0.00 45 100.6
20260504014104 17 132 0.0 0.0 0.00 0.00 0.00 45 100.6
20260504013104 18 63 0.0 0.0 0.00 0.00 0.00 42 100.6
20260504012104 19 38 0.0 1.6 0.00 0.00 0.00 40 100.6
20260504011104 20 37 0.0 1.6 0.00 0.00 0.00 39 100.6
20260504010104 20 133 0.0 1.6 0.00 0.00 0.00 38 100.6
20260504005104 21 134 0.0 1.6 0.00 0.00 0.00 37 100.5
20260504004104 21 131 0.0 1.6 0.00 0.00 0.00 36 100.5
20260504003104 21 134 0.0 1.6 0.00 0.00 0.00 36 100.5
20260504002104 22 124 1.6 3.2 0.00 0.00 0.00 35 100.5
20260504001104 23 126 0.0 1.6 0.00 0.00 0.00 36 100.5
20260504000104 23 130 0.0 1.6 0.00 0.00 0.00 34 100.5
20260503235104 23 104 1.6 3.2 0.00 0.00 0.00 34 100.5
20260503234104 23 131 0.0 1.6 0.00 0.00 0.00 34 100.5
20260503233104 23 127 1.6 1.6 0.00 0.00 0.00 35 100.5
20260503232104 23 128 0.0 1.6 0.00 0.00 0.00 35 100.5
20260503231104 23 133 1.6 3.2 0.00 0.00 0.00 34 100.5
20260503230104 24 133 1.6 4.8 0.00 0.00 0.00 33 100.5
20260503225104 23 132 1.6 1.6 0.00 0.00 0.00 34 100.5
20260503224104 24 131 1.6 3.2 0.00 0.00 0.00 35 100.5
20260503223104 24 132 1.6 3.2 0.00 0.00 0.00 35 100.5
20260503222104 24 133 1.6 1.6 0.00 0.00 0.00 37 100.5
20260503221104 24 130 1.6 4.8 0.00 0.00 0.00 36 100.5
20260503220104 24 132 1.6 3.2 0.00 0.00 0.00 35 100.5
20260503215104 24 130 1.6 1.6 0.00 0.00 0.00 35 100.5
20260503214104 24 131 3.2 3.2 0.00 0.00 0.00 35 100.5
20260503213104 25 132 1.6 1.6 0.00 0.00 0.00 35 100.5
20260503212104 25 130 1.6 3.2 0.00 0.00 0.00 37 100.5
20260503211104 25 123 1.6 3.2 0.00 0.00 0.00 37 100.5
20260503210104 25 130 1.6 1.6 0.00 0.00 0.00 38 100.5
20260503205104 25 132 1.6 1.6 0.00 0.00 0.00 37 100.5
20260503204104 24 133 1.6 3.2 0.00 0.00 0.00 38 100.5
20260503203104 24 130 1.6 4.8 0.00 0.00 0.00 36 100.5
20260503202104 25 129 1.6 1.6 0.00 0.00 0.00 38 100.5
20260503201104 24 127 1.6 3.2 0.00 0.00 0.00 36 100.5
20260503200104 24 130 1.6 3.2 0.00 0.00 0.00 37 100.5
20260503195104 24 7 1.6 3.2 0.00 0.00 0.00 37 100.5
20260503194104 23 83 3.2 4.8 0.00 0.00 0.00 39 100.5
20260503193104 23 130 1.6 3.2 0.00 0.00 0.00 40 100.5
20260503192104 23 102 1.6 3.2 0.00 0.00 0.00 40 100.5
20260503191104 22 134 0.0 1.6 0.00 0.00 0.00 43 100.5
20260503190104 22 23 3.2 6.4 0.00 0.00 0.00 42 100.5
20260503185104 22 103 1.6 3.2 0.00 0.00 0.00 44 100.6
20260503184104 22 6 1.6 4.8 0.00 0.00 0.00 43 100.6
20260503183104 21 334 3.2 6.4 0.00 0.00 0.00 44 100.6
20260503182104 21 36 3.2 4.8 0.00 0.00 0.00 44 100.6
20260503181104 21 41 1.6 3.2 0.00 0.00 0.00 44 100.6
20260503180104 20 108 4.8 6.4 0.00 0.00 0.00 45 100.6
20260503175104 20 44 1.6 3.2 0.00 0.00 0.00 45 100.7
20260503174104 20 41 3.2 6.4 0.00 0.00 0.00 46 100.7
20260503173104 19 14 1.6 3.2 0.00 0.00 0.00 46 100.7
20260503172104 18 51 3.2 6.4 0.00 0.00 0.00 47 100.7
20260503171104 18 58 3.2 4.8 0.00 0.00 0.00 47 100.7
20260503170104 18 60 4.8 8.0 0.00 0.00 0.00 46 100.7
20260503160104 16 60 3.2 4.8 0.00 0.00 0.00 49 100.7
20260503150104 15 40 3.2 4.8 0.00 0.00 0.00 51 100.8
20260503140104 12 34 3.2 4.8 0.00 0.00 0.00 54 100.9
20260503131104 11 343 4.8 8.0 0.00 0.00 0.00 61 100.9
20260503130104 10 352 3.2 8.0 0.00 0.00 0.00 62 101.0
20260503120104 9 307 1.6 3.2 0.00 0.00 0.00 68 101.1
20260503110104 10 263 1.6 1.6 0.00 0.00 0.00 61 101.2
20260503100104 11 352 0.0 1.6 0.00 0.00 0.00 57 101.2
20260503090104 11 92 1.6 1.6 0.00 0.00 0.00 52 101.3
20260503081104 12 51 1.6 3.2 0.00 0.00 0.00 51 101.3